Location: Spondin
(51.8528°N, 111.6118°W)
Time: 17:33:10
(UTC+00:00)

Vanguard 2 Rocket - Pass Details

Date: 30 May 2022
Orbit: 553 x 3323 km, 32.9° (Epoch: 02 July)

Event Time Altitude Azimuth Distance (km) Brightness Sun altitude
Rises 00:09:37 0° 265° (W) 7,053 12.7 28.3°
Reaches altitude 10° 00:15:48 10° 256° (WSW) 5,710 12.5 27.4°
Maximum altitude 00:27:44 26° 209° (SSW) 3,623 10.5 25.5°
Drops below altitude 10° 00:36:05 10° 158° (SSE) 3,883 9.9 24.2°
Sets 00:39:20 0° 146° (SE) 4,487 10.1 23.7°
